M0OAB-1 Weather Reports


time (UTC)temp
C
wind
direction
speed
KPH
gust
KPH
rain 1hr
cm
rain 24hr
cm
rain mn
cm
humidity
%
barometer
mb
20260510140605 13 116 6.4 12.9 0.00 0.00 0.00 56 1002.0
20260510140404 13 84 6.4 6.4 0.00 0.00 0.00 56 1002.0
20260510140204 13 73 6.4 6.4 0.00 0.00 0.00 56 1002.1
20260510140005 13 88 6.4 8.0 0.00 0.00 0.00 56 1002.1
20260510135605 12 34 8.0 11.3 0.00 0.00 0.00 57 1002.1
20260510135404 12 14 8.0 11.3 0.00 0.00 0.00 57 1002.2
20260510135205 12 29 8.0 11.3 0.00 0.00 0.00 57 1002.1
20260510135005 12 355 8.0 11.3 0.00 0.00 0.00 57 1002.0
20260510134805 12 344 8.0 8.0 0.00 0.00 0.00 57 1002.1
20260510134605 12 34 8.0 9.7 0.00 0.00 0.00 57 1002.2
20260510134405 12 63 8.0 12.9 0.00 0.00 0.00 57 1002.3
20260510134205 12 62 9.7 14.5 0.00 0.00 0.00 56 1002.2
20260510134004 12 69 9.7 14.5 0.00 0.00 0.00 57 1002.2
20260510133605 12 68 8.0 14.5 0.00 0.00 0.00 57 1002.2
20260510133405 12 72 6.4 14.5 0.00 0.00 0.00 57 1002.2
20260510133205 13 56 6.4 11.3 0.00 0.00 0.00 58 1002.3
20260510133004 13 30 6.4 12.9 0.00 0.00 0.00 58 1002.3
20260510132804 13 35 8.0 12.9 0.00 0.00 0.00 58 1002.3
20260510132605 12 35 8.0 12.9 0.00 0.00 0.00 58 1002.3
20260510132405 12 356 9.7 12.9 0.00 0.00 0.00 57 1002.4
20260510132205 12 15 11.3 12.9 0.00 0.00 0.00 57 1002.2
20260510132004 13 36 9.7 12.9 0.00 0.00 0.00 57 1002.3
20260510131805 12 54 9.7 12.9 0.00 0.00 0.00 57 1002.3
20260510131605 12 62 9.7 16.1 0.00 0.00 0.00 58 1002.3
20260510131405 12 88 8.0 16.1 0.00 0.00 0.00 58 1002.4
20260510131204 12 77 8.0 16.1 0.00 0.00 0.00 58 1002.3
20260510131005 12 46 9.7 22.5 0.00 0.00 0.00 58 1002.5
20260510130404 12 7 11.3 22.5 0.00 0.00 0.00 58 1002.5
20260510130204 12 33 11.3 22.5 0.00 0.00 0.00 58 1002.4
20260510130005 13 20 9.7 22.5 0.00 0.00 0.00 58 1002.4
20260510125805 13 113 8.0 12.9 0.00 0.00 0.00 58 1002.5
20260510125404 13 72 9.7 12.9 0.00 0.00 0.00 58 1002.4
20260510125204 13 15 11.3 16.1 0.00 0.00 0.00 59 1002.5
20260510125005 12 5 11.3 16.1 0.00 0.00 0.00 58 1002.5
20260510124604 12 9 11.3 16.1 0.00 0.00 0.00 59 1002.6
20260510124405 12 7 11.3 16.1 0.00 0.00 0.00 59 1002.6
20260510124204 12 355 9.7 16.1 0.00 0.00 0.00 60 1002.6
20260510124005 12 26 11.3 17.7 0.00 0.00 0.00 60 1002.6
20260510123805 12 39 11.3 17.7 0.00 0.00 0.00 60 1002.6
20260510123604 12 55 11.3 17.7 0.00 0.00 0.00 60 1002.7
20260510123405 12 48 11.3 17.7 0.00 0.00 0.00 60 1002.6
20260510123205 12 64 11.3 17.7 0.00 0.00 0.00 59 1002.5
20260510123004 12 39 12.9 17.7 0.00 0.00 0.00 59 1002.5
20260510122605 13 355 12.9 16.1 0.00 0.00 0.00 59 1002.5
20260510122405 13 344 11.3 16.1 0.00 0.00 0.00 60 1002.5
20260510122004 13 336 9.7 12.9 0.00 0.00 0.00 60 1002.7
20260510121804 13 345 9.7 12.9 0.00 0.00 0.00 60 1002.6
20260510121405 13 89 9.7 12.9 0.00 0.00 0.00 60 1002.6
20260510121204 12 90 8.0 12.9 0.00 0.00 0.00 61 1002.6
20260510121004 12 94 9.7 16.1 0.00 0.00 0.00 61 1002.7
20260510120804 12 82 8.0 16.1 0.00 0.00 0.00 61 1002.8
20260510120605 12 55 8.0 16.1 0.00 0.00 0.00 62 1002.6
20260510120404 12 42 8.0 16.1 0.00 0.00 0.00 62 1002.8
20260510120204 12 24 8.0 16.1 0.00 0.00 0.00 62 1002.8
20260510120004 12 17 6.4 12.9 0.00 0.00 0.00 62 1002.7
20260510115805 12 28 8.0 12.9 0.00 0.00 0.00 61 1002.8
20260510115605 12 34 9.7 12.9 0.00 0.00 0.00 61 1003.0
20260510115405 12 46 9.7 12.9 0.00 0.00 0.00 61 1002.8
20260510115204 12 37 9.7 12.9 0.00 0.00 0.00 61 1002.9
20260510115004 12 24 9.7 12.9 0.00 0.00 0.00 61 1003.0
20260510114805 12 21 9.7 12.9 0.00 0.00 0.00 62 1003.0
20260510114604 12 34 9.7 12.9 0.00 0.00 0.00 62 1003.0
20260510114205 12 326 8.0 12.9 0.00 0.00 0.00 62 1003.1
20260510114005 12 97 8.0 12.9 0.00 0.00 0.00 62 1003.1
20260510113805 12 109 9.7 12.9 0.00 0.00 0.00 62 1003.1
20260510113604 12 66 11.3 12.9 0.00 0.00 0.00 62 1003.1
20260510113205 12 74 11.3 12.9 0.00 0.00 0.00 62 1003.0
20260510113005 12 61 11.3 12.9 0.00 0.00 0.00 61 1003.2
20260510112804 12 47 11.3 12.9 0.00 0.00 0.00 61 1003.1
20260510112605 12 57 9.7 12.9 0.00 0.00 0.00 61 1003.2
20260510112405 12 84 9.7 12.9 0.00 0.00 0.00 61 1003.2
20260510112005 13 111 8.0 12.9 0.00 0.00 0.00 62 1003.3
20260510111804 13 158 8.0 12.9 0.00 0.00 0.00 62 1003.2
20260510111604 13 162 8.0 12.9 0.00 0.00 0.00 61 1003.2
20260510111404 13 204 8.0 12.9 0.00 0.00 0.00 61 1003.2
20260510111204 13 205 6.4 9.7 0.00 0.00 0.00 61 1003.2
20260510111005 13 149 6.4 9.7 0.00 0.00 0.00 62 1003.2
20260510110804 13 67 8.0 14.5 0.00 0.00 0.00 62 1003.2
20260510110405 13 55 8.0 14.5 0.00 0.00 0.00 62 1003.2
20260510110204 13 50 8.0 14.5 0.00 0.00 0.00 62 1003.2
20260510105804 13 83 8.0 12.9 0.00 0.00 0.00 61 1003.2
20260510105604 13 82 9.7 17.7 0.00 0.00 0.00 62 1003.4
20260510105405 13 76 8.0 17.7 0.00 0.00 0.00 62 1003.1
20260510105205 13 29 9.7 17.7 0.00 0.00 0.00 62 1003.3
20260510105004 13 10 9.7 17.7 0.00 0.00 0.00 62 1003.3
20260510104804 13 347 9.7 17.7 0.00 0.00 0.00 62 1003.1
20260510104605 13 346 9.7 14.5 0.00 0.00 0.00 62 1003.2
20260510104405 13 4 9.7 14.5 0.00 0.00 0.00 63 1003.2
20260510104205 13 26 9.7 14.5 0.00 0.00 0.00 63 1003.1
20260510104004 13 41 9.7 14.5 0.00 0.00 0.00 62 1003.3
20260510103605 12 106 8.0 12.9 0.00 0.00 0.00 62 1003.0
20260510103404 12 100 8.0 12.9 0.00 0.00 0.00 62 1003.2
20260510103204 12 83 9.7 16.1 0.00 0.00 0.00 62 1003.3
20260510103005 12 73 9.7 16.1 0.00 0.00 0.00 62 1003.1
20260510102805 12 59 9.7 16.1 0.00 0.00 0.00 62 1003.3
20260510102604 12 44 9.7 16.1 0.00 0.00 0.00 62 1003.3
20260510102404 12 59 9.7 16.1 0.00 0.00 0.00 62 1003.4
20260510102205 12 65 9.7 16.1 0.00 0.00 0.00 62 1003.3
20260510102005 12 97 8.0 12.9 0.00 0.00 0.00 62 1003.3
20260510101605 12 103 8.0 12.9 0.00 0.00 0.00 63 1003.3
20260510101404 12 54 8.0 9.7 0.00 0.00 0.00 63 1003.4
20260510101204 12 76 8.0 12.9 0.00 0.00 0.00 63 1003.4
20260510100804 12 75 9.7 17.7 0.00 0.00 0.00 63 1003.5
20260510100605 12 73 11.3 19.3 0.00 0.00 0.00 63 1003.3
20260510100205 12 97 9.7 19.3 0.00 0.00 0.00 63 1003.4
20260510100005 12 49 9.7 19.3 0.00 0.00 0.00 64 1003.5
20260510095805 12 310 11.3 19.3 0.00 0.00 0.00 64 1003.5
20260510095404 12 359 9.7 19.3 0.00 0.00 0.00 65 1003.5
20260510095004 12 43 8.0 19.3 0.00 0.00 0.00 65 1003.4
20260510094805 12 65 8.0 14.5 0.00 0.00 0.00 65 1003.3
20260510094404 12 33 8.0 14.5 0.00 0.00 0.00 70 1003.4
20260510094204 12 356 8.0 12.9 0.00 0.00 0.00 70 1003.4
20260510094004 12 353 8.0 12.9 0.00 0.00 0.00 70 1003.5
20260510093804 12 352 8.0 12.9 0.00 0.00 0.00 70 1003.6
20260510093604 12 339 8.0 12.9 0.00 0.00 0.00 70 1003.5
20260510093405 12 335 8.0 16.1 0.00 0.00 0.00 70 1003.5
20260510093204 12 16 9.7 16.1 0.00 0.00 0.00 70 1003.6
20260510093004 12 25 9.7 16.1 0.00 0.00 0.00 70 1003.7
20260510092805 12 22 11.3 16.1 0.00 0.00 0.00 70 1003.6
20260510092604 12 27 9.7 16.1 0.00 0.00 0.00 70 1003.8
20260510092405 12 36 11.3 16.1 0.00 0.00 0.00 70 1003.5
20260510092204 12 17 11.3 16.1 0.00 0.00 0.00 70 1003.4
20260510092004 12 12 11.3 16.1 0.00 0.00 0.00 70 1003.5
20260510091804 12 23 9.7 14.5 0.00 0.00 0.00 70 1003.6
20260510091605 12 35 11.3 14.5 0.00 0.00 0.00 70 1003.4
20260510091404 12 47 11.3 14.5 0.00 0.00 0.00 70 1003.5
20260510091205 12 96 11.3 14.5 0.00 0.00 0.00 70 1003.7
20260510091005 12 139 11.3 16.1 0.00 0.00 0.00 70 1003.6
20260510090804 12 98 11.3 16.1 0.00 0.00 0.00 70 1003.6
20260510090604 12 77 11.3 16.1 0.00 0.00 0.00 70 1003.6
20260510090404 12 78 11.3 16.1 0.00 0.00 0.00 70 1003.8
20260510090205 12 60 11.3 16.1 0.00 0.00 0.00 70 1003.7
20260510090004 12 43 9.7 14.5 0.00 0.00 0.00 71 1003.7
20260510085805 12 11 11.3 14.5 0.00 0.00 0.00 71 1003.6
20260510085605 12 34 11.3 17.7 0.00 0.00 0.00 71 1003.7
20260510085204 11 19 12.9 17.7 0.00 0.00 0.00 71 1003.8
20260510085004 11 23 11.3 17.7 0.00 0.00 0.00 71 1003.7
20260510084804 11 55 11.3 17.7 0.00 0.00 0.00 71 1003.8
20260510084405 11 25 9.7 12.9 0.00 0.00 0.00 72 1003.8
20260510084204 11 34 9.7 22.5 0.00 0.00 0.00 72 1003.8
20260510083804 11 41 11.3 22.5 0.00 0.00 0.00 72 1003.8
20260510083604 11 40 11.3 22.5 0.00 0.00 0.00 72 1003.7
20260510083405 11 54 11.3 22.5 0.00 0.00 0.00 72 1003.8
20260510083204 11 72 11.3 22.5 0.00 0.00 0.00 72 1003.8
20260510083005 11 71 9.7 12.9 0.00 0.00 0.00 73 1003.9
20260510082804 11 81 9.7 12.9 0.00 0.00 0.00 73 1003.8
20260510082604 11 69 9.7 12.9 0.00 0.00 0.00 73 1003.8
20260510082205 11 69 8.0 12.9 0.00 0.00 0.00 73 1003.7
20260510082004 11 49 8.0 12.9 0.00 0.00 0.00 73 1003.8
20260510081804 11 25 8.0 12.9 0.00 0.00 0.00 73 1003.8
20260510081404 11 356 9.7 17.7 0.00 0.00 0.00 73 1003.8
20260510081005 11 320 9.7 17.7 0.00 0.00 0.00 74 1003.9
20260510080604 11 327 8.0 11.3 0.00 0.00 0.00 74 1003.7
20260510080404 11 338 8.0 11.3 0.00 0.00 0.00 74 1003.7
20260510080204 11 19 9.7 16.1 0.00 0.00 0.00 74 1003.9
20260510075805 11 82 11.3 17.7 0.00 0.00 0.00 75 1003.9
20260510075604 11 56 11.3 17.7 0.00 0.00 0.00 75 1003.8
20260510075205 11 92 11.3 17.7 0.00 0.00 0.00 75 1003.7
20260510075004 11 108 9.7 17.7 0.00 0.00 0.00 75 1003.7
20260510074804 11 120 11.3 14.5 0.00 0.00 0.00 75 1003.8
20260510074604 11 112 9.7 12.9 0.00 0.00 0.00 75 1003.8
20260510074404 11 109 11.3 16.1 0.00 0.00 0.00 75 1003.7
20260510074204 11 89 9.7 16.1 0.00 0.00 0.00 75 1003.8
20260510074004 11 53 9.7 16.1 0.00 0.00 0.00 76 1003.7
20260510073805 11 73 9.7 16.1 0.00 0.00 0.00 76 1003.8
20260510073604 11 296 8.0 16.1 0.00 0.00 0.00 76 1003.9
20260510073204 11 123 6.4 12.9 0.00 0.00 0.00 76 1003.9
20260510073004 10 97 8.0 12.9 0.00 0.00 0.00 76 1003.9
20260510072804 10 89 8.0 12.9 0.00 0.00 0.00 76 1003.9
20260510072405 10 287 9.7 16.1 0.00 0.00 0.00 77 1003.8
20260510072204 10 185 9.7 16.1 0.00 0.00 0.00 77 1003.8
20260510072004 10 214 9.7 16.1 0.00 0.00 0.00 77 1003.9
20260510071804 10 248 9.7 16.1 0.00 0.00 0.00 78 1003.8
20260510071605 10 133 8.0 16.1 0.00 0.00 0.00 78 1003.9
20260510071405 10 103 8.0 12.9 0.00 0.00 0.00 78 1003.9
20260510071204 10 77 8.0 12.9 0.00 0.00 0.00 78 1003.8
20260510070805 10 62 8.0 12.9 0.00 0.00 0.00 79 1003.8
20260510070204 10 35 11.3 20.9 0.00 0.00 0.00 80 1003.7
20260510070005 10 82 11.3 20.9 0.00 0.00 0.00 80 1003.6
20260510065804 10 90 11.3 20.9 0.00 0.00 0.00 80 1003.8
20260510065604 10 152 8.0 16.1 0.00 0.00 0.00 80 1003.7
20260510065204 10 109 6.4 9.7 0.00 0.00 0.00 81 1003.6
20260510065004 10 61 6.4 6.4 0.00 0.00 0.00 81 1003.8
20260510064804 10 34 6.4 11.3 0.00 0.00 0.00 81 1003.6
20260510064604 10 28 8.0 14.5 0.00 0.00 0.00 81 1003.6
20260510064404 10 34 8.0 14.5 0.00 0.00 0.00 81 1003.6
20260510064205 10 43 9.7 14.5 0.00 0.00 0.00 81 1003.6
20260510064004 10 59 9.7 14.5 0.00 0.00 0.00 82 1003.7
20260510063804 10 57 9.7 14.5 0.00 0.00 0.00 82 1003.6
20260510063605 10 55 9.7 14.5 0.00 0.00 0.00 82 1003.6
20260510063404 10 54 9.7 12.9 0.00 0.00 0.00 82 1003.5
20260510063004 10 349 9.7 12.9 0.00 0.00 0.00 82 1003.6
20260510062804 10 341 9.7 17.7 0.00 0.00 0.00 82 1003.6
20260510062604 10 359 9.7 17.7 0.00 0.00 0.00 82 1003.6
20260510062404 10 13 8.0 17.7 0.00 0.00 0.00 82 1003.4
20260510062004 10 59 8.0 17.7 0.00 0.00 0.00 83 1003.5
20260510061805 10 19 6.4 14.5 0.00 0.00 0.00 83 1003.6
20260510061605 10 304 6.4 14.5 0.00 0.00 0.00 83 1003.6
20260510061404 10 19 6.4 14.5 0.00 0.00 0.00 83 1003.6
20260510061204 10 343 6.4 14.5 0.00 0.00 0.00 83 1003.6
20260510061004 9 55 4.8 11.3 0.00 0.00 0.00 83 1003.7
20260510060804 9 295 4.8 9.7 0.00 0.00 0.00 83 1003.5
20260510060604 9 306 6.4 17.7 0.00 0.00 0.00 83 1003.6
20260510060405 9 321 8.0 17.7 0.00 0.00 0.00 83 1003.5
20260510060204 9 310 9.7 17.7 0.00 0.00 0.00 83 1003.6
20260510060005 9 301 9.7 17.7 0.00 0.00 0.00 83 1003.5
20260510055805 9 313 9.7 17.7 0.00 0.00 0.00 83 1003.5
20260510055404 9 310 8.0 12.9 0.00 0.00 0.00 83 1003.5
20260510055205 9 338 8.0 12.9 0.00 0.00 0.00 84 1003.6
20260510055005 9 342 8.0 14.5 0.00 0.00 0.00 84 1003.5
20260510054804 9 353 8.0 14.5 0.00 0.00 0.00 84 1003.5
20260510054404 9 131 8.0 14.5 0.00 0.00 0.00 84 1003.4
20260510054205 9 194 9.7 19.3 0.00 0.00 0.00 84 1003.4
20260510054004 9 209 9.7 19.3 0.00 0.00 0.00 84 1003.4
20260510053804 9 194 8.0 19.3 0.00 0.00 0.00 84 1003.5
20260510053604 9 246 9.7 19.3 0.00 0.00 0.00 84 1003.5
20260510053405 9 318 9.7 19.3 0.00 0.00 0.00 85 1003.4
20260510053204 9 354 8.0 12.9 0.00 0.00 0.00 85 1003.4
20260510053004 9 15 6.4 8.0 0.00 0.00 0.00 85 1003.4
20260510052804 9 28 8.0 9.7 0.00 0.00 0.00 85 1003.3
20260510052604 9 9 6.4 9.7 0.00 0.00 0.00 85 1003.4
20260510052404 9 330 8.0 12.9 0.00 0.00 0.00 85 1003.4
20260510052204 9 314 9.7 12.9 0.00 0.00 0.00 85 1003.4
20260510052004 9 259 8.0 12.9 0.00 0.00 0.00 85 1003.4
20260510051404 9 11 8.0 12.9 0.00 0.00 0.00 85 1003.3
20260510051205 9 21 6.4 11.3 0.00 0.00 0.00 85 1003.3
20260510051004 9 29 6.4 11.3 0.00 0.00 0.00 85 1003.3
20260510050804 9 36 8.0 16.1 0.00 0.00 0.00 85 1003.5
20260510050605 9 39 8.0 16.1 0.00 0.00 0.00 85 1003.3
20260510050404 9 38 8.0 16.1 0.00 0.00 0.00 85 1003.5
20260510050204 9 35 8.0 16.1 0.00 0.00 0.00 85 1003.5
20260510050004 9 35 8.0 16.1 0.00 0.00 0.00 84 1003.6
20260510045805 9 6 6.4 14.5 0.00 0.00 0.00 84 1003.5
20260510045604 9 21 4.8 11.3 0.00 0.00 0.00 84 1003.5
20260510045404 9 26 6.4 11.3 0.00 0.00 0.00 84 1003.5
20260510045204 9 61 6.4 11.3 0.00 0.00 0.00 84 1003.5
20260510045004 9 53 6.4 11.3 0.00 0.00 0.00 84 1003.5
20260510044404 8 57 4.8 8.0 0.00 0.00 0.00 84 1003.5
20260510044204 8 42 4.8 8.0 0.00 0.00 0.00 84 1003.6
20260510043804 8 47 4.8 8.0 0.00 0.00 0.00 84 1003.5
20260510043604 8 55 4.8 9.7 0.00 0.00 0.00 84 1003.5
20260510043404 8 282 4.8 9.7 0.00 0.00 0.00 84 1003.4
20260510043205 8 314 4.8 9.7 0.00 0.00 0.00 84 1003.6
20260510043004 8 343 4.8 9.7 0.00 0.00 0.00 84 1003.5
20260510042804 8 341 4.8 9.7 0.00 0.00 0.00 84 1003.6
20260510042404 8 25 4.8 11.3 0.00 0.00 0.00 84 1003.6
20260510042204 8 7 6.4 11.3 0.00 0.00 0.00 84 1003.6
20260510042005 9 313 6.4 11.3 0.00 0.00 0.00 84 1003.5
20260510041404 9 356 6.4 9.7 0.00 0.00 0.00 83 1003.5
20260510041205 9 78 6.4 16.1 0.00 0.00 0.00 83 1003.5
20260510041004 9 75 6.4 16.1 0.00 0.00 0.00 84 1003.5
20260510040804 9 72 6.4 16.1 0.00 0.00 0.00 83 1003.6
20260510040604 9 48 6.4 16.1 0.00 0.00 0.00 83 1003.6
20260510040404 9 51 6.4 16.1 0.00 0.00 0.00 83 1003.6
20260510040204 9 354 4.8 14.5 0.00 0.00 0.00 83 1003.6
20260510040004 9 3 6.4 14.5 0.00 0.00 0.00 83 1003.6
20260510035804 9 341 4.8 14.5 0.00 0.00 0.00 83 1003.6
20260510035604 9 24 4.8 8.0 0.00 0.00 0.00 83 1003.6
20260510035204 9 347 3.2 8.0 0.00 0.00 0.00 83 1003.8
20260510034804 9 14 4.8 8.0 0.00 0.00 0.00 84 1003.6
20260510034404 9 4 6.4 12.9 0.00 0.00 0.00 84 1003.8
20260510034205 9 12 6.4 12.9 0.00 0.00 0.00 84 1003.7
20260510034004 9 315 6.4 12.9 0.00 0.00 0.00 84 1003.9
20260510033604 9 251 6.4 12.9 0.00 0.00 0.00 84 1003.8
20260510033204 9 301 6.4 12.9 0.00 0.00 0.00 84 1003.8
20260510032805 9 12 6.4 12.9 0.00 0.00 0.00 84 1003.8
20260510032604 9 348 6.4 12.9 0.00 0.00 0.00 84 1003.8
20260510032404 9 347 6.4 12.9 0.00 0.00 0.00 84 1003.8
20260510032204 9 21 4.8 12.9 0.00 0.00 0.00 84 1003.9
20260510031804 9 351 6.4 9.7 0.00 0.00 0.00 85 1003.8
20260510031404 9 21 8.0 14.5 0.00 0.00 0.00 85 1003.7
20260510031204 9 3 8.0 14.5 0.00 0.00 0.00 85 1003.8
20260510031004 9 17 8.0 14.5 0.00 0.00 0.00 85 1003.7
20260510030804 9 14 9.7 14.5 0.00 0.00 0.00 85 1003.8
20260510030604 9 6 8.0 14.5 0.00 0.00 0.00 85 1003.7
20260510030404 9 317 8.0 12.9 0.00 0.00 0.00 85 1003.9
20260510030204 9 316 9.7 12.9 0.00 0.00 0.00 85 1004.0
20260510030004 9 325 9.7 12.9 0.00 0.00 0.00 85 1003.9
20260510025805 9 332 8.0 12.9 0.00 0.00 0.00 85 1003.7
20260510025604 9 341 9.7 12.9 0.00 0.00 0.00 84 1004.0
20260510025404 9 353 8.0 12.9 0.00 0.00 0.00 84 1003.9
20260510025204 9 2 8.0 11.3 0.00 0.00 0.00 84 1004.0
20260510025005 9 4 8.0 11.3 0.00 0.00 0.00 84 1004.1
20260510024804 9 352 8.0 11.3 0.00 0.00 0.00 84 1004.0
20260510024604 9 7 8.0 11.3 0.00 0.00 0.00 84 1004.1
20260510024404 9 13 8.0 11.3 0.00 0.00 0.00 84 1004.2
20260510024004 9 16 6.4 14.5 0.00 0.00 0.00 84 1004.0
20260510023804 9 33 6.4 14.5 0.00 0.00 0.00 84 1004.1
20260510023604 9 24 6.4 14.5 0.00 0.00 0.00 84 1004.0
20260510023404 9 354 6.4 14.5 0.00 0.00 0.00 84 1004.0
20260510022804 9 302 6.4 12.9 0.00 0.00 0.00 84 1004.0
20260510022604 9 318 4.8 9.7 0.00 0.00 0.00 84 1004.0
20260510022405 9 306 4.8 9.7 0.00 0.00 0.00 84 1004.0
20260510022204 9 315 4.8 9.7 0.00 0.00 0.00 84 1004.0
20260510022004 9 314 4.8 8.0 0.00 0.00 0.00 84 1004.1
20260510021804 9 354 6.4 8.0 0.00 0.00 0.00 84 1004.0
20260510021605 9 339 4.8 8.0 0.00 0.00 0.00 84 1004.0
20260510021404 9 337 4.8 8.0 0.00 0.00 0.00 84 1004.0
20260510021204 9 320 6.4 8.0 0.00 0.00 0.00 84 1004.1
20260510021004 9 343 4.8 8.0 0.00 0.00 0.00 84 1004.2
20260510020404 9 331 4.8 8.0 0.00 0.00 0.00 84 1004.1
20260510020204 9 335 4.8 6.4 0.00 0.00 0.00 84 1004.3
20260510020005 9 329 4.8 9.7 0.00 0.00 0.00 84 1004.3
20260510015804 9 334 4.8 9.7 0.00 0.00 0.00 84 1004.2
20260510015604 9 330 4.8 9.7 0.00 0.00 0.00 84 1004.2
20260510015204 9 332 4.8 9.7 0.00 0.00 0.00 83 1004.3
20260510015004 9 8 4.8 8.0 0.00 0.00 0.00 83 1004.3
20260510014804 9 312 4.8 12.9 0.00 0.00 0.00 83 1004.2
20260510014604 9 305 4.8 12.9 0.00 0.00 0.00 83 1004.2
20260510014404 9 303 4.8 12.9 0.00 0.00 0.00 83 1004.2
20260510014204 9 330 4.8 12.9 0.00 0.00 0.00 83 1004.2
20260510014004 9 326 4.8 12.9 0.00 0.00 0.00 83 1004.3
20260510013804 9 355 4.8 8.0 0.00 0.00 0.00 83 1004.1
20260510013604 9 358 6.4 8.0 0.00 0.00 0.00 83 1004.3
20260510013404 9 349 6.4 8.0 0.00 0.00 0.00 83 1004.2
20260510013204 9 340 4.8 8.0 0.00 0.00 0.00 83 1004.2
20260510013004 9 335 6.4 8.0 0.00 0.00 0.00 83 1004.1
20260510012805 9 332 4.8 8.0 0.00 0.00 0.00 82 1004.3
20260510012604 9 3 6.4 12.9 0.00 0.00 0.00 82 1004.3
20260510012404 9 10 6.4 12.9 0.00 0.00 0.00 82 1004.2
20260510012204 9 45 4.8 12.9 0.00 0.00 0.00 82 1004.1
20260510012004 9 87 4.8 12.9 0.00 0.00 0.00 82 1004.2
20260510011604 9 348 3.2 6.4 0.00 0.00 0.00 81 1004.0
20260510011404 9 18 4.8 6.4 0.00 0.00 0.00 81 1004.2
20260510011205 9 52 4.8 9.7 0.00 0.00 0.00 81 1004.2
20260510011004 9 30 4.8 9.7 0.00 0.00 0.00 81 1004.1
20260510010804 9 14 6.4 12.9 0.00 0.00 0.00 81 1004.2
20260510010604 9 2 6.4 12.9 0.00 0.00 0.00 81 1004.1
20260510010404 9 3 8.0 12.9 0.00 0.00 0.00 81 1004.2
20260510010204 9 352 8.0 12.9 0.00 0.00 0.00 80 1004.2
20260510010004 9 338 8.0 12.9 0.00 0.00 0.00 80 1004.1
20260510005804 9 328 8.0 11.3 0.00 0.00 0.00 80 1004.2
20260510005604 9 328 6.4 11.3 0.00 0.00 0.00 79 1004.1
20260510005404 9 322 6.4 9.7 0.00 0.00 0.00 78 1004.3
20260510005004 9 339 6.4 8.0 0.00 0.00 0.00 77 1004.2
20260510004804 9 336 4.8 8.0 0.00 0.00 0.00 76 1004.2
20260510004604 9 334 4.8 8.0 0.00 0.00 0.00 75 1004.4
20260510004404 9 339 4.8 6.4 0.00 0.00 0.00 75 1004.2
20260510004204 9 337 4.8 6.4 0.00 0.00 0.00 75 1004.3
20260510004004 9 336 4.8 6.4 0.00 0.00 0.00 74 1004.2
20260510003804 9 353 4.8 8.0 0.00 0.00 0.00 74 1004.4
20260510003605 10 7 4.8 8.0 0.00 0.00 0.00 73 1004.3
20260510003404 10 358 4.8 8.0 0.00 0.00 0.00 73 1004.3
20260510003204 10 354 4.8 8.0 0.00 0.00 0.00 73 1004.4
20260510003004 10 338 4.8 8.0 0.00 0.00 0.00 72 1004.4
20260510002804 10 346 4.8 8.0 0.00 0.00 0.00 72 1004.4
20260510002604 10 356 4.8 8.0 0.00 0.00 0.00 72 1004.4
20260510002404 10 353 4.8 8.0 0.00 0.00 0.00 71 1004.3
20260510002204 10 358 4.8 8.0 0.00 0.00 0.00 71 1004.4
20260510002004 10 9 4.8 8.0 0.00 0.00 0.00 71 1004.4
20260510001804 10 345 4.8 8.0 0.00 0.00 0.00 71 1004.4
20260510001604 10 339 6.4 9.7 0.00 0.00 0.00 71 1004.6
20260510001404 10 336 6.4 9.7 0.00 0.00 0.00 70 1004.5
20260510001204 10 332 8.0 9.7 0.00 0.00 0.00 70 1004.5
20260510001004 10 325 6.4 9.7 0.00 0.00 0.00 70 1004.7
20260510000804 10 323 6.4 9.7 0.00 0.00 0.00 70 1004.5
20260510000604 10 309 6.4 9.7 0.00 0.00 0.00 70 1004.5
20260510000404 10 303 6.4 11.3 0.00 0.00 0.00 69 1004.4
20260510000204 10 307 6.4 11.3 0.00 0.00 0.00 69 1004.6
20260510000004 10 314 6.4 11.3 0.00 0.00 0.00 69 1004.7
20260509235804 10 313 6.4 11.3 0.00 0.00 0.00 69 1004.6
20260509235604 10 322 6.4 11.3 0.00 0.00 0.00 69 1004.6
20260509235404 10 322 6.4 9.7 0.00 0.00 0.00 69 1004.5
20260509235204 11 320 6.4 9.7 0.00 0.00 0.00 69 1004.5
20260509235004 11 324 6.4 9.7 0.00 0.00 0.00 69 1004.5
20260509234804 11 331 6.4 9.7 0.00 0.00 0.00 69 1004.4
20260509234604 11 334 6.4 11.3 0.00 0.00 0.00 69 1004.5
20260509234404 11 320 4.8 11.3 0.00 0.00 0.00 69 1004.7
20260509234204 11 332 4.8 11.3 0.00 0.00 0.00 69 1004.5
20260509234004 11 2 4.8 11.3 0.00 0.00 0.00 69 1004.4
20260509233804 11 3 4.8 11.3 0.00 0.00 0.00 69 1004.5
20260509233604 11 344 4.8 11.3 0.00 0.00 0.00 69 1004.6
20260509233403 11 6 4.8 6.4 0.00 0.00 0.00 69 1004.4
20260509233204 11 356 4.8 6.4 0.00 0.00 0.00 68 1004.5
20260509233004 11 323 4.8 6.4 0.00 0.00 0.00 68 1004.6
20260509232804 11 324 4.8 4.8 0.00 0.00 0.00 68 1004.4
20260509232604 11 313 3.2 4.8 0.00 0.00 0.00 68 1004.4
20260509232404 11 284 3.2 6.4 0.00 0.00 0.00 68 1004.6
20260509232204 11 24 3.2 6.4 0.00 0.00 0.00 68 1004.7
20260509232004 11 67 3.2 6.4 0.00 0.00 0.00 68 1004.7
20260509231804 11 35 3.2 6.4 0.00 0.00 0.00 68 1004.6
20260509231604 11 32 4.8 6.4 0.00 0.00 0.00 67 1004.6
20260509231405 11 15 4.8 6.4 0.00 0.00 0.00 67 1004.6
20260509231204 11 351 4.8 6.4 0.00 0.00 0.00 67 1004.7
20260509230803 11 256 4.8 6.4 0.00 0.00 0.00 66 1004.6
20260509230604 11 245 4.8 6.4 0.00 0.00 0.00 66 1004.6
20260509230404 11 221 4.8 6.4 0.00 0.00 0.00 66 1004.6
20260509230005 11 80 4.8 8.0 0.00 0.00 0.00 65 1004.5
20260509225604 11 20 4.8 8.0 0.00 0.00 0.00 64 1004.5
20260509225404 11 10 4.8 8.0 0.00 0.00 0.00 64 1004.4
20260509225204 11 21 4.8 8.0 0.00 0.00 0.00 64 1004.4
20260509225004 11 2 4.8 6.4 0.00 0.00 0.00 64 1004.7
20260509224804 11 40 4.8 6.4 0.00 0.00 0.00 64 1004.6
20260509224604 11 94 4.8 6.4 0.00 0.00 0.00 63 1004.6
20260509224404 11 165 3.2 4.8 0.00 0.00 0.00 63 1004.6
20260509224005 11 184 3.2 6.4 0.00 0.00 0.00 63 1004.5
20260509223604 11 5 3.2 6.4 0.00 0.00 0.00 62 1004.4
20260509223204 11 351 3.2 6.4 0.00 0.00 0.00 62 1004.6
20260509222804 11 356 3.2 4.8 0.00 0.00 0.00 62 1004.8
20260509222604 11 353 3.2 4.8 0.00 0.00 0.00 62 1004.7
20260509222404 11 2 3.2 4.8 0.00 0.00 0.00 61 1004.6
20260509222204 12 9 1.6 4.8 0.00 0.00 0.00 61 1004.7
20260509222004 12 45 1.6 3.2 0.00 0.00 0.00 61 1004.7
20260509221804 12 76 1.6 3.2 0.00 0.00 0.00 61 1004.7
20260509221604 12 117 1.6 3.2 0.00 0.00 0.00 61 1004.7
20260509221404 12 105 1.6 3.2 0.00 0.00 0.00 61 1004.7
20260509221204 12 98 3.2 3.2 0.00 0.00 0.00 61 1004.6
20260509221004 12 89 3.2 4.8 0.00 0.00 0.00 61 1004.7
20260509220804 12 92 1.6 4.8 0.00 0.00 0.00 60 1004.6
20260509220604 12 88 1.6 4.8 0.00 0.00 0.00 60 1004.7
20260509220404 12 107 3.2 4.8 0.00 0.00 0.00 60 1004.7
20260509220204 12 98 3.2 4.8 0.00 0.00 0.00 60 1004.5
20260509220004 12 108 1.6 3.2 0.00 0.00 0.00 60 1004.4
20260509215804 12 144 3.2 3.2 0.00 0.00 0.00 60 1004.4
20260509215604 12 111 3.2 3.2 0.00 0.00 0.00 60 1004.3
20260509215404 12 82 3.2 6.4 0.00 0.00 0.00 60 1004.3
20260509215204 12 124 3.2 6.4 0.00 0.00 0.00 59 1004.2
20260509215004 12 126 3.2 6.4 0.00 0.00 0.00 59 1004.2
20260509214804 12 69 3.2 6.4 0.00 0.00 0.00 58 1004.1
20260509214604 12 46 3.2 6.4 0.00 0.00 0.00 58 1004.2
20260509214404 12 58 3.2 6.4 0.00 0.00 0.00 58 1004.2
20260509214204 12 52 3.2 3.2 0.00 0.00 0.00 57 1004.2
20260509214004 12 41 3.2 3.2 0.00 0.00 0.00 57 1004.2
20260509213404 12 63 3.2 3.2 0.00 0.00 0.00 53 1004.2
20260509213204 12 58 3.2 3.2 0.00 0.00 0.00 53 1004.2
20260509213004 12 81 3.2 6.4 0.00 0.00 0.00 53 1004.0
20260509212804 12 86 3.2 6.4 0.00 0.00 0.00 53 1004.1
20260509212604 12 101 3.2 6.4 0.00 0.00 0.00 52 1003.9
20260509212404 12 104 3.2 6.4 0.00 0.00 0.00 52 1004.0
20260509212204 12 101 3.2 6.4 0.00 0.00 0.00 52 1004.0
20260509211804 12 73 3.2 6.4 0.00 0.00 0.00 52 1003.9
20260509211604 12 66 3.2 6.4 0.00 0.00 0.00 52 1004.0
20260509211404 12 52 3.2 6.4 0.00 0.00 0.00 52 1004.0
20260509211203 12 40 3.2 6.4 0.00 0.00 0.00 52 1003.8
20260509210604 12 57 1.6 3.2 0.00 0.00 0.00 53 1004.0
20260509210403 12 66 1.6 3.2 0.00 0.00 0.00 53 1004.0
20260509210204 12 75 1.6 3.2 0.00 0.00 0.00 53 1004.0
20260509210004 12 75 0.0 3.2 0.00 0.00 0.00 53 1004.1
20260509205804 12 52 0.0 3.2 0.00 0.00 0.00 53 1004.1
20260509205604 12 346 1.6 3.2 0.00 0.00 0.00 53 1003.9
20260509205404 12 349 1.6 3.2 0.00 0.00 0.00 53 1004.0
20260509205204 12 20 1.6 3.2 0.00 0.00 0.00 53 1004.1
20260509205004 13 351 1.6 3.2 0.00 0.00 0.00 53 1004.0
20260509204804 13 46 1.6 3.2 0.00 0.00 0.00 52 1003.8
20260509204605 13 90 1.6 3.2 0.00 0.00 0.00 52 1003.9
20260509204404 13 112 1.6 3.2 0.00 0.00 0.00 52 1003.8
20260509204004 13 39 1.6 3.2 0.00 0.00 0.00 52 1003.8
20260509203604 13 27 0.0 3.2 0.00 0.00 0.00 52 1003.9
20260509203404 13 56 0.0 3.2 0.00 0.00 0.00 52 1003.7
20260509202811 13 135 0.0 1.6 0.00 0.00 0.00 51 1003.7
20260509202605 13 135 0.0 1.6 0.00 0.00 0.00 51 1003.7
20260509202406 13 0 0.0 0.0 0.00 0.00 0.00 51 1003.7
20260509202208 13 0 0.0 0.0 0.00 0.00 0.00 51 1003.8
20260509202009 13 45 0.0 1.6 0.00 0.00 0.00 51 1003.7
20260509201823 13 45 0.0 1.6 0.00 0.00 0.00 51 1003.7
20260509201404 13 71 0.0 1.6 0.00 0.00 0.00 50 1003.7
20260509201008 13 82 0.0 1.6 0.00 0.00 0.00 50 1003.6
20260509200808 13 93 0.0 1.6 0.00 0.00 0.00 50 1003.5
20260509200610 13 51 0.0 1.6 0.00 0.00 0.00 50 1003.5
20260509200410 13 45 0.0 1.6 0.00 0.00 0.00 50 1003.7
20260509200215 13 45 0.0 3.2 0.00 0.00 0.00 50 1003.5
20260509195806 13 45 0.0 3.2 0.00 0.00 0.00 50 1003.6
20260509195617 13 45 0.0 3.2 0.00 0.00 0.00 50 1003.5
20260509195411 13 45 0.0 3.2 0.00 0.00 0.00 50 1003.6
20260509195206 13 0 0.0 0.0 0.00 0.00 0.00 50 1003.5
20260509194806 14 0 0.0 0.0 0.00 0.00 0.00 50 1003.5
20260509194608 14 0 0.0 0.0 0.00 0.00 0.00 50 1003.5
20260509194414 14 0 0.0 0.0 0.00 0.00 0.00 50 1003.4
20260509194009 14 0 0.0 0.0 0.00 0.00 0.00 50 1003.4
20260509193811 14 0 0.0 0.0 0.00 0.00 0.00 50 1003.3
20260509193405 14 0 0.0 0.0 0.00 0.00 0.00 50 1003.3
20260509193009 15 0 0.0 0.0 0.00 0.00 0.00 49 1003.5
20260509192808 15 0 0.0 0.0 0.00 0.00 0.00 49 1003.5
20260509192403 15 0 0.0 0.0 0.00 0.00 0.00 49 1003.5
20260509192204 15 0 0.0 0.0 0.00 0.00 0.00 49 1003.3
20260509191804 15 0 0.0 0.0 0.00 0.00 0.00 48 1003.5
20260509191604 15 0 0.0 0.0 0.00 0.00 0.00 48 1003.4
20260509191403 15 0 0.0 0.0 0.00 0.00 0.00 48 1003.3
20260509191204 15 0 0.0 0.0 0.00 0.00 0.00 47 1003.5
20260509191004 15 0 0.0 0.0 0.00 0.00 0.00 47 1003.5
20260509190804 15 0 0.0 0.0 0.00 0.00 0.00 46 1003.4
20260509190603 15 0 0.0 0.0 0.00 0.00 0.00 46 1003.5
20260509190404 16 0 0.0 0.0 0.00 0.00 0.00 46 1003.3
20260509190204 16 205 0.0 6.4 0.00 0.00 0.00 46 1003.2
20260509190004 16 206 1.6 6.4 0.00 0.00 0.00 46 1003.1
20260509185804 16 192 1.6 6.4 0.00 0.00 0.00 46 1003.2
20260509185603 16 170 1.6 6.4 0.00 0.00 0.00 45 1003.1
20260509185404 16 136 3.2 6.4 0.00 0.00 0.00 45 1003.1
20260509185203 16 99 1.6 6.4 0.00 0.00 0.00 45 1003.2
20260509185004 16 93 1.6 4.8 0.00 0.00 0.00 44 1003.0
20260509184804 16 122 1.6 4.8 0.00 0.00 0.00 44 1003.0
20260509184603 16 99 3.2 4.8 0.00 0.00 0.00 44 1003.0
20260509184404 16 26 1.6 4.8 0.00 0.00 0.00 44 1003.1
20260509184204 16 201 1.6 3.2 0.00 0.00 0.00 44 1003.1
20260509183804 16 295 3.2 3.2 0.00 0.00 0.00 44 1002.8
20260509183604 16 227 3.2 6.4 0.00 0.00 0.00 44 1002.9
20260509183404 16 221 3.2 6.4 0.00 0.00 0.00 43 1002.9
20260509183204 16 153 3.2 6.4 0.00 0.00 0.00 43 1003.0
20260509182803 17 182 3.2 6.4 0.00 0.00 0.00 43 1002.9
20260509182605 17 182 1.6 4.8 0.00 0.00 0.00 43 1002.9
20260509182404 17 184 1.6 4.8 0.00 0.00 0.00 42 1003.0
20260509182203 17 230 1.6 6.4 0.00 0.00 0.00 42 1002.8
20260509182004 17 222 3.2 6.4 0.00 0.00 0.00 42 1002.8
20260509181804 17 202 3.2 6.4 0.00 0.00 0.00 42 1003.0
20260509181604 17 185 3.2 6.4 0.00 0.00 0.00 43 1002.9
20260509181403 17 155 4.8 6.4 0.00 0.00 0.00 42 1002.7
20260509181204 17 136 3.2 6.4 0.00 0.00 0.00 42 1002.8
20260509181004 17 125 3.2 6.4 0.00 0.00 0.00 42 1002.8
20260509180804 17 173 4.8 12.9 0.00 0.00 0.00 41 1002.9
20260509180604 17 213 3.2 12.9 0.00 0.00 0.00 40 1002.8
20260509180204 17 203 3.2 12.9 0.00 0.00 0.00 40 1002.7
20260509180004 17 195 3.2 12.9 0.00 0.00 0.00 40 1002.8
20260509175804 17 145 1.6 3.2 0.00 0.00 0.00 40 1002.8
20260509175604 17 140 1.6 3.2 0.00 0.00 0.00 40 1002.7
20260509175404 17 161 1.6 8.0 0.00 0.00 0.00 40 1002.7
20260509175203 17 99 3.2 8.0 0.00 0.00 0.00 40 1002.8
20260509175004 17 95 3.2 8.0 0.00 0.00 0.00 40 1002.8
20260509174404 17 81 3.2 8.0 0.00 0.00 0.00 39 1002.8
20260509174204 17 68 3.2 8.0 0.00 0.00 0.00 40 1002.6
20260509174003 17 77 4.8 8.0 0.00 0.00 0.00 40 1002.6
20260509173803 17 72 4.8 8.0 0.00 0.00 0.00 39 1002.6
20260509173604 17 62 4.8 8.0 0.00 0.00 0.00 37 1002.8
20260509173204 18 40 4.8 8.0 0.00 0.00 0.00 39 1002.7
20260509173003 18 4 4.8 8.0 0.00 0.00 0.00 40 1002.8
20260509172804 18 12 4.8 8.0 0.00 0.00 0.00 40 1002.7
20260509172604 18 45 4.8 8.0 0.00 0.00 0.00 40 1002.8
20260509172404 18 69 4.8 8.0 0.00 0.00 0.00 40 1002.9
20260509172003 18 100 3.2 6.4 0.00 0.00 0.00 40 1003.0
20260509171804 18 134 3.2 6.4 0.00 0.00 0.00 41 1003.1
20260509171604 17 149 3.2 4.8 0.00 0.00 0.00 41 1003.0
20260509171404 17 171 3.2 4.8 0.00 0.00 0.00 41 1003.2
20260509171004 18 160 3.2 8.0 0.00 0.00 0.00 41 1002.9
20260509170803 18 166 3.2 8.0 0.00 0.00 0.00 41 1003.0
20260509170604 18 163 4.8 8.0 0.00 0.00 0.00 41 1003.1
20260509170404 18 169 4.8 8.0 0.00 0.00 0.00 41 1003.1
20260509170204 18 170 4.8 6.4 0.00 0.00 0.00 41 1003.1
20260509170004 18 172 4.8 6.4 0.00 0.00 0.00 41 1003.2
20260509165803 18 174 4.8 6.4 0.00 0.00 0.00 41 1003.2
20260509165604 18 183 4.8 6.4 0.00 0.00 0.00 41 1003.1
20260509165404 18 167 4.8 6.4 0.00 0.00 0.00 40 1003.1
20260509165204 18 161 4.8 6.4 0.00 0.00 0.00 40 1003.2
20260509165003 18 161 4.8 6.4 0.00 0.00 0.00 40 1003.1
20260509164804 18 166 4.8 6.4 0.00 0.00 0.00 40 1003.1
20260509164604 18 167 4.8 6.4 0.00 0.00 0.00 40 1003.1
20260509164203 19 190 4.8 6.4 0.00 0.00 0.00 40 1003.1
20260509164004 19 190 4.8 8.0 0.00 0.00 0.00 40 1003.1
20260509163403 19 103 4.8 8.0 0.00 0.00 0.00 40 1003.1
20260509163004 19 122 4.8 8.0 0.00 0.00 0.00 38 1003.2
20260509162804 20 148 4.8 8.0 0.00 0.00 0.00 40 1003.1
20260509162604 20 167 6.4 8.0 0.00 0.00 0.00 40 1003.2
20260509162404 20 173 6.4 8.0 0.00 0.00 0.00 40 1003.2
20260509162204 20 179 6.4 8.0 0.00 0.00 0.00 40 1003.1
20260509162004 20 177 4.8 8.0 0.00 0.00 0.00 40 1003.2
20260509161603 20 199 4.8 8.0 0.00 0.00 0.00 40 1003.2
20260509161004 20 176 6.4 8.0 0.00 0.00 0.00 41 1003.2
20260509160403 20 154 4.8 8.0 0.00 0.00 0.00 40 1003.1
20260509160204 20 158 4.8 8.0 0.00 0.00 0.00 40 1003.0
20260509160004 20 166 4.8 8.0 0.00 0.00 0.00 40 1003.2
20260509155803 20 161 4.8 8.0 0.00 0.00 0.00 40 1003.3
20260509155604 20 160 4.8 8.0 0.00 0.00 0.00 40 1003.2
20260509155403 20 187 4.8 6.4 0.00 0.00 0.00 40 1003.1
20260509155204 20 194 4.8 4.8 0.00 0.00 0.00 39 1003.1
20260509154604 20 200 3.2 6.4 0.00 0.00 0.00 40 1003.3
20260509154403 20 194 3.2 6.4 0.00 0.00 0.00 40 1003.3
20260509154204 20 175 4.8 6.4 0.00 0.00 0.00 39 1003.2
20260509154004 20 149 4.8 6.4 0.00 0.00 0.00 39 1003.2
20260509153803 20 162 4.8 6.4 0.00 0.00 0.00 39 1003.2
20260509153404 20 144 4.8 8.0 0.00 0.00 0.00 39 1003.3
20260509153203 20 132 4.8 8.0 0.00 0.00 0.00 38 1003.2
20260509153004 20 153 4.8 8.0 0.00 0.00 0.00 38 1003.2
20260509152803 20 167 4.8 8.0 0.00 0.00 0.00 37 1003.2
20260509152603 20 190 4.8 6.4 0.00 0.00 0.00 36 1003.2
20260509152404 20 192 4.8 8.0 0.00 0.00 0.00 36 1003.2
20260509152204 21 183 6.4 9.7 0.00 0.00 0.00 37 1003.1
20260509152003 21 185 6.4 9.7 0.00 0.00 0.00 37 1003.1
20260509151804 21 176 4.8 9.7 0.00 0.00 0.00 37 1003.0
20260509151604 21 171 4.8 9.7 0.00 0.00 0.00 36 1003.0
20260509151403 21 175 4.8 9.7 0.00 0.00 0.00 36 1003.1
20260509151203 21 183 3.2 6.4 0.00 0.00 0.00 35 1003.1
20260509150804 21 177 3.2 6.4 0.00 0.00 0.00 36 1003.0
20260509150604 21 201 4.8 8.0 0.00 0.00 0.00 35 1002.9
20260509150204 21 208 4.8 8.0 0.00 0.00 0.00 35 1003.0
20260509150003 21 221 4.8 8.0 0.00 0.00 0.00 33 1003.0
20260509145804 21 204 6.4 8.0 0.00 0.00 0.00 33 1003.0
20260509145604 21 122 4.8 6.4 0.00 0.00 0.00 33 1002.9
20260509145403 21 61 4.8 6.4 0.00 0.00 0.00 34 1002.8
20260509145204 21 58 4.8 6.4 0.00 0.00 0.00 34 1002.8
20260509145004 21 44 4.8 6.4 0.00 0.00 0.00 33 1002.8
20260509144603 21 30 4.8 6.4 0.00 0.00 0.00 33 1002.8
20260509144404 21 73 4.8 6.4 0.00 0.00 0.00 34 1002.7
20260509144203 21 95 4.8 6.4 0.00 0.00 0.00 34 1002.8
20260509144004 21 116 4.8 6.4 0.00 0.00 0.00 33 1002.6
20260509143803 21 112 4.8 6.4 0.00 0.00 0.00 33 1002.7
20260509143603 21 94 4.8 6.4 0.00 0.00 0.00 33 1002.9
20260509143204 21 15 4.8 9.7 0.00 0.00 0.00 36 1002.6
20260509143003 21 34 4.8 9.7 0.00 0.00 0.00 36 1002.7
20260509142804 21 31 4.8 9.7 0.00 0.00 0.00 36 1002.8
20260509142604 21 21 4.8 9.7 0.00 0.00 0.00 36 1002.7
20260509142403 21 11 4.8 9.7 0.00 0.00 0.00 35 1002.7
20260509142004 21 143 3.2 6.4 0.00 0.00 0.00 36 1002.6
20260509141603 21 98 4.8 8.0 0.00 0.00 0.00 36 1002.7
20260509141403 21 139 4.8 8.0 0.00 0.00 0.00 37 1002.8
20260509141204 21 157 4.8 8.0 0.00 0.00 0.00 37 1002.9
20260509140804 21 151 4.8 8.0 0.00 0.00 0.00 37 1003.1